| time (UTC) | temp F | wind direction | speed MPH | gust MPH | rain 1hr in | rain 24hr in | rain mn in | humidity % | barometer mb |
| 20260504201400 | 94 | 147 | 5.0 | 7.0 | 0.00 | 0.00 | 0.00 | 49 | 1015.2 |
| 20260504200857 | 95 | 148 | 3.0 | 5.0 | 0.00 | 0.00 | 0.00 | 47 | 1015.1 |
| 20260504200354 | 94 | 179 | 2.0 | 3.0 | 0.00 | 0.00 | 0.00 | 49 | 1015.0 |
| 20260504195851 | 94 | 155 | 3.0 | 3.0 | 0.00 | 0.00 | 0.00 | 48 | 1014.9 |
| 20260504195346 | 94 | 109 | 3.0 | 5.0 | 0.00 | 0.00 | 0.00 | 48 | 1014.9 |
| 20260504194843 | 94 | 260 | 2.0 | 2.0 | 0.00 | 0.00 | 0.00 | 49 | 1014.8 |
| 20260504194339 | 93 | 143 | 0.0 | 1.0 | 0.00 | 0.00 | 0.00 | 49 | 1015.2 |
| 20260504193835 | 94 | 205 | 2.0 | 2.0 | 0.00 | 0.00 | 0.00 | 47 | 1015.2 |
| 20260504193333 | 96 | 183 | 4.0 | 6.0 | 0.00 | 0.00 | 0.00 | 46 | 1015.2 |
| 20260504192831 | 94 | 186 | 3.0 | 5.0 | 0.00 | 0.00 | 0.00 | 50 | 1014.9 |
| 20260504192329 | 93 | 81 | 1.0 | 2.0 | 0.00 | 0.00 | 0.00 | 60 | 1015.3 |
| 20260504191827 | 93 | 60 | 2.0 | 2.0 | 0.00 | 0.00 | 0.00 | 59 | 1015.3 |
| 20260504191324 | 92 | 5 | 3.0 | 6.0 | 0.00 | 0.00 | 0.00 | 61 | 1015.3 |
| 20260504190820 | 92 | 62 | 4.0 | 6.0 | 0.00 | 0.00 | 0.00 | 63 | 1015.2 |
| 20260504190316 | 92 | 98 | 5.0 | 7.0 | 0.00 | 0.00 | 0.00 | 63 | 1015.4 |
| 20260504185813 | 92 | 189 | 1.0 | 1.0 | 0.00 | 0.00 | 0.00 | 63 | 1015.3 |
| 20260504185310 | 92 | 68 | 5.0 | 6.0 | 0.00 | 0.00 | 0.00 | 62 | 1015.4 |
| 20260504184806 | 91 | 85 | 2.0 | 2.0 | 0.00 | 0.00 | 0.00 | 64 | 1015.4 |
| 20260504184302 | 90 | 59 | 2.0 | 2.0 | 0.00 | 0.00 | 0.00 | 66 | 1015.5 |
| 20260504183757 | 91 | 71 | 3.0 | 5.0 | 0.00 | 0.00 | 0.00 | 64 | 1015.5 |
| 20260504183254 | 90 | 81 | 5.0 | 7.0 | 0.00 | 0.00 | 0.00 | 66 | 1015.6 |
| 20260504182753 | 90 | 101 | 5.0 | 8.0 | 0.00 | 0.00 | 0.00 | 64 | 1015.8 |
| 20260504182249 | 91 | 105 | 4.0 | 6.0 | 0.00 | 0.00 | 0.00 | 65 | 1015.7 |
| 20260504181747 | 91 | 65 | 2.0 | 3.0 | 0.00 | 0.00 | 0.00 | 64 | 1015.9 |
| 20260504181244 | 92 | 94 | 7.0 | 9.0 | 0.00 | 0.00 | 0.00 | 60 | 1015.7 |
| 20260504180743 | 93 | 43 | 4.0 | 5.0 | 0.00 | 0.00 | 0.00 | 61 | 1016.1 |
| 20260504180242 | 94 | 21 | 4.0 | 6.0 | 0.00 | 0.00 | 0.00 | 58 | 1016.0 |
| 20260504175739 | 96 | 113 | 3.0 | 5.0 | 0.00 | 0.00 | 0.00 | 43 | 1016.1 |
| 20260504175235 | 96 | 267 | 0.0 | 0.0 | 0.00 | 0.00 | 0.00 | 42 | 1016.2 |
| 20260504174733 | 95 | 287 | 2.0 | 2.0 | 0.00 | 0.00 | 0.00 | 44 | 1016.1 |
| 20260504174231 | 94 | 232 | 4.0 | 5.0 | 0.00 | 0.00 | 0.00 | 45 | 1016.3 |
| 20260504173727 | 94 | 175 | 1.0 | 2.0 | 0.00 | 0.00 | 0.00 | 44 | 1016.2 |
| 20260504173224 | 94 | 97 | 9.0 | 11.0 | 0.00 | 0.00 | 0.00 | 45 | 1016.5 |
| 20260504172721 | 94 | 237 | 2.0 | 3.0 | 0.00 | 0.00 | 0.00 | 46 | 1016.1 |
| 20260504172217 | 95 | 214 | 5.0 | 8.0 | 0.00 | 0.00 | 0.00 | 45 | 1016.2 |
| 20260504171714 | 92 | 168 | 4.0 | 6.0 | 0.00 | 0.00 | 0.00 | 47 | 1016.7 |
| 20260504171211 | 92 | 93 | 4.0 | 6.0 | 0.00 | 0.00 | 0.00 | 48 | 1016.6 |
| 20260504170708 | 91 | 271 | 1.0 | 2.0 | 0.00 | 0.00 | 0.00 | 51 | 1016.3 |
| 20260504170206 | 92 | 83 | 1.0 | 2.0 | 0.00 | 0.00 | 0.00 | 51 | 1016.5 |
| 20260504160124 | 90 | 24 | 1.0 | 1.0 | 0.00 | 0.00 | 0.00 | 61 | 1017.1 |
| 20260504151051 | 91 | 145 | 2.0 | 5.0 | 0.00 | 0.00 | 0.00 | 58 | 1017.8 |
| 20260504150548 | 89 | 102 | 4.0 | 6.0 | 0.00 | 0.00 | 0.00 | 58 | 1018.0 |
| 20260504141014 | 88 | 102 | 6.0 | 9.0 | 0.00 | 0.00 | 0.00 | 63 | 1018.2 |
| 20260504140510 | 87 | 121 | 10.0 | 13.0 | 0.00 | 0.00 | 0.00 | 64 | 1018.0 |
| 20260504130435 | 85 | 131 | 4.0 | 6.0 | 0.00 | 0.00 | 0.00 | 71 | 1018.3 |
| 20260504110322 | 80 | 184 | 1.0 | 1.0 | 0.00 | 0.00 | 0.00 | 83 | 1018.6 |
| 20260504100240 | 73 | 181 | 0.0 | 0.0 | 0.00 | 0.00 | 0.00 | 94 | 1017.9 |
| 20260504081633 | 74 | 181 | 0.0 | 0.0 | 0.00 | 0.00 | 0.00 | 93 | 1017.3 |
| 20260504081129 | 74 | 194 | 0.0 | 0.0 | 0.00 | 0.00 | 0.00 | 93 | 1017.4 |
| 20260504080626 | 74 | 193 | 0.0 | 0.0 | 0.00 | 0.00 | 0.00 | 93 | 1017.3 |
| 20260504080122 | 74 | 145 | 0.0 | 0.0 | 0.00 | 0.00 | 0.00 | 93 | 1017.3 |
| 20260504050439 | 77 | 198 | 0.0 | 0.0 | 0.00 | 0.00 | 0.00 | 84 | 1017.9 |
| 20260504045936 | 77 | 150 | 0.0 | 0.0 | 0.00 | 0.00 | 0.00 | 84 | 1018.3 |
| 20260504045431 | 78 | 150 | 1.0 | 1.0 | 0.00 | 0.00 | 0.00 | 83 | 1018.5 |
| 20260504044928 | 78 | 173 | 0.0 | 0.0 | 0.00 | 0.00 | 0.00 | 83 | 1018.3 |
| 20260504044426 | 77 | 149 | 0.0 | 0.0 | 0.00 | 0.00 | 0.00 | 82 | 1018.6 |
| 20260504043923 | 77 | 190 | 0.0 | 0.0 | 0.00 | 0.00 | 0.00 | 82 | 1018.6 |
| 20260504043420 | 77 | 192 | 0.0 | 0.0 | 0.00 | 0.00 | 0.00 | 82 | 1018.7 |
| 20260504042917 | 77 | 171 | 0.0 | 0.0 | 0.00 | 0.00 | 0.00 | 82 | 1018.8 |
| 20260504042414 | 77 | 184 | 0.0 | 0.0 | 0.00 | 0.00 | 0.00 | 82 | 1018.9 |
| 20260504041910 | 77 | 172 | 0.0 | 0.0 | 0.00 | 0.00 | 0.00 | 82 | 1018.9 |
| 20260504041406 | 77 | 185 | 0.0 | 0.0 | 0.00 | 0.00 | 0.00 | 82 | 1018.9 |
| 20260504040902 | 77 | 187 | 0.0 | 0.0 | 0.00 | 0.00 | 0.00 | 83 | 1019.1 |
| 20260504040400 | 76 | 169 | 0.0 | 0.0 | 0.00 | 0.00 | 0.00 | 83 | 1019.2 |
| 20260504035856 | 77 | 166 | 0.0 | 0.0 | 0.00 | 0.00 | 0.00 | 83 | 1019.2 |
| 20260504035354 | 77 | 166 | 0.0 | 0.0 | 0.00 | 0.00 | 0.00 | 83 | 1019.3 |
| 20260504034850 | 77 | 184 | 0.0 | 0.0 | 0.00 | 0.00 | 0.00 | 83 | 1019.4 |
| 20260504034347 | 77 | 183 | 0.0 | 0.0 | 0.00 | 0.00 | 0.00 | 82 | 1019.4 |
| 20260504033844 | 77 | 184 | 0.0 | 0.0 | 0.00 | 0.00 | 0.00 | 83 | 1019.5 |
| 20260504033343 | 77 | 157 | 0.0 | 0.0 | 0.00 | 0.00 | 0.00 | 82 | 1019.5 |
| 20260504032839 | 77 | 171 | 0.0 | 0.0 | 0.00 | 0.00 | 0.00 | 82 | 1019.3 |
| 20260504032336 | 77 | 159 | 0.0 | 0.0 | 0.00 | 0.00 | 0.00 | 83 | 1019.2 |
| 20260504031833 | 77 | 174 | 0.0 | 0.0 | 0.00 | 0.00 | 0.00 | 83 | 1019.4 |
| 20260504031330 | 77 | 179 | 0.0 | 0.0 | 0.00 | 0.00 | 0.00 | 83 | 1019.4 |
| 20260504030826 | 76 | 183 | 0.0 | 0.0 | 0.00 | 0.00 | 0.00 | 84 | 1019.4 |
| 20260504030324 | 76 | 150 | 0.0 | 0.0 | 0.00 | 0.00 | 0.00 | 84 | 1019.2 |
| 20260504025820 | 76 | 182 | 0.0 | 0.0 | 0.00 | 0.00 | 0.00 | 84 | 1019.1 |
| 20260504025317 | 77 | 176 | 0.0 | 0.0 | 0.00 | 0.00 | 0.00 | 83 | 1019.0 |
| 20260504024813 | 77 | 145 | 0.0 | 0.0 | 0.00 | 0.00 | 0.00 | 83 | 1019.0 |
| 20260504024310 | 77 | 131 | 0.0 | 0.0 | 0.00 | 0.00 | 0.00 | 82 | 1019.1 |
| 20260504023807 | 77 | 162 | 0.0 | 0.0 | 0.00 | 0.00 | 0.00 | 82 | 1019.2 |
| 20260504023303 | 77 | 157 | 0.0 | 0.0 | 0.00 | 0.00 | 0.00 | 81 | 1018.9 |
| 20260504022759 | 78 | 183 | 0.0 | 0.0 | 0.00 | 0.00 | 0.00 | 80 | 1018.7 |
| 20260504022255 | 78 | 183 | 0.0 | 0.0 | 0.00 | 0.00 | 0.00 | 81 | 1018.8 |
| 20260504021752 | 77 | 172 | 0.0 | 0.0 | 0.00 | 0.00 | 0.00 | 81 | 1018.8 |
| 20260504021250 | 78 | 166 | 1.0 | 2.0 | 0.00 | 0.00 | 0.00 | 80 | 1018.2 |
| 20260504020747 | 79 | 185 | 0.0 | 0.0 | 0.00 | 0.00 | 0.00 | 79 | 1018.7 |
| 20260504020243 | 79 | 129 | 1.0 | 2.0 | 0.00 | 0.00 | 0.00 | 78 | 1018.3 |
| 20260504015739 | 79 | 180 | 0.0 | 0.0 | 0.00 | 0.00 | 0.00 | 78 | 1018.6 |
| 20260504015236 | 79 | 163 | 0.0 | 1.0 | 0.00 | 0.00 | 0.00 | 77 | 1018.5 |
| 20260504014732 | 79 | 157 | 1.0 | 2.0 | 0.00 | 0.00 | 0.00 | 77 | 1018.6 |
| 20260504014228 | 79 | 174 | 1.0 | 1.0 | 0.00 | 0.00 | 0.00 | 77 | 1018.3 |
| 20260504013726 | 79 | 164 | 0.0 | 1.0 | 0.00 | 0.00 | 0.00 | 77 | 1018.3 |
| 20260504013224 | 79 | 151 | 1.0 | 2.0 | 0.00 | 0.00 | 0.00 | 76 | 1018.0 |
| 20260504012720 | 79 | 95 | 3.0 | 3.0 | 0.00 | 0.00 | 0.00 | 76 | 1018.2 |
| 20260504012218 | 79 | 153 | 3.0 | 3.0 | 0.00 | 0.00 | 0.00 | 77 | 1018.1 |
| 20260504011715 | 79 | 187 | 2.0 | 2.0 | 0.00 | 0.00 | 0.00 | 77 | 1018.1 |
| 20260504011211 | 80 | 170 | 3.0 | 3.0 | 0.00 | 0.00 | 0.00 | 77 | 1018.1 |
| 20260504010708 | 80 | 156 | 2.0 | 3.0 | 0.00 | 0.00 | 0.00 | 76 | 1018.0 |
| 20260504010203 | 80 | 183 | 0.0 | 1.0 | 0.00 | 0.00 | 0.00 | 76 | 1018.1 |
| 20260504005700 | 80 | 173 | 0.0 | 1.0 | 0.00 | 0.00 | 0.00 | 76 | 1018.0 |
| 20260504005157 | 80 | 182 | 1.0 | 1.0 | 0.00 | 0.00 | 0.00 | 76 | 1018.1 |
| 20260504004655 | 80 | 153 | 1.0 | 2.0 | 0.00 | 0.00 | 0.00 | 75 | 1018.2 |
| 20260504004152 | 81 | 167 | 0.0 | 0.0 | 0.00 | 0.00 | 0.00 | 75 | 1018.0 |
| 20260504003648 | 81 | 170 | 1.0 | 1.0 | 0.00 | 0.00 | 0.00 | 75 | 1017.9 |
| 20260504003145 | 81 | 169 | 1.0 | 2.0 | 0.00 | 0.00 | 0.00 | 75 | 1018.0 |
| 20260504002641 | 81 | 171 | 2.0 | 2.0 | 0.00 | 0.00 | 0.00 | 75 | 1018.1 |
| 20260504002139 | 81 | 195 | 0.0 | 0.0 | 0.00 | 0.00 | 0.00 | 76 | 1018.1 |
| 20260504001637 | 81 | 202 | 1.0 | 1.0 | 0.00 | 0.00 | 0.00 | 76 | 1017.7 |
| 20260504001132 | 80 | 181 | 1.0 | 1.0 | 0.00 | 0.00 | 0.00 | 78 | 1017.5 |
| 20260504000630 | 80 | 205 | 1.0 | 1.0 | 0.00 | 0.00 | 0.00 | 80 | 1017.6 |
| 20260504000127 | 80 | 186 | 0.0 | 0.0 | 0.00 | 0.00 | 0.00 | 83 | 1017.6 |
| 20260503235625 | 81 | 158 | 0.0 | 0.0 | 0.00 | 0.00 | 0.00 | 83 | 1017.5 |
| 20260503235122 | 81 | 171 | 0.0 | 0.0 | 0.00 | 0.00 | 0.00 | 83 | 1017.3 |
| 20260503234620 | 81 | 158 | 0.0 | 0.0 | 0.00 | 0.00 | 0.00 | 83 | 1017.2 |
| 20260503234118 | 81 | 168 | 1.0 | 1.0 | 0.00 | 0.00 | 0.00 | 82 | 1017.3 |
| 20260503233615 | 82 | 182 | 0.0 | 0.0 | 0.00 | 0.00 | 0.00 | 81 | 1017.2 |
| 20260503233110 | 82 | 143 | 0.0 | 0.0 | 0.00 | 0.00 | 0.00 | 81 | 1017.3 |
| 20260503232607 | 82 | 167 | 0.0 | 0.0 | 0.00 | 0.00 | 0.00 | 81 | 1017.2 |
| 20260503232105 | 82 | 150 | 0.0 | 0.0 | 0.00 | 0.00 | 0.00 | 81 | 1017.2 |
| 20260503231603 | 82 | 138 | 1.0 | 1.0 | 0.00 | 0.00 | 0.00 | 81 | 1017.1 |
| 20260503231059 | 82 | 180 | 0.0 | 1.0 | 0.00 | 0.00 | 0.00 | 81 | 1017.0 |
| 20260503230555 | 82 | 181 | 1.0 | 2.0 | 0.00 | 0.00 | 0.00 | 82 | 1016.9 |
| 20260503230053 | 82 | 151 | 1.0 | 2.0 | 0.00 | 0.00 | 0.00 | 81 | 1016.7 |
| 20260503225550 | 83 | 146 | 1.0 | 1.0 | 0.00 | 0.00 | 0.00 | 81 | 1017.1 |
| 20260503225045 | 83 | 200 | 0.0 | 1.0 | 0.00 | 0.00 | 0.00 | 81 | 1016.8 |
| 20260503224543 | 83 | 103 | 1.0 | 2.0 | 0.00 | 0.00 | 0.00 | 80 | 1016.9 |
| 20260503224040 | 83 | 120 | 1.0 | 1.0 | 0.00 | 0.00 | 0.00 | 80 | 1016.6 |
| 20260503223538 | 83 | 87 | 2.0 | 3.0 | 0.00 | 0.00 | 0.00 | 79 | 1016.8 |
| 20260503223033 | 84 | 104 | 3.0 | 3.0 | 0.00 | 0.00 | 0.00 | 79 | 1016.7 |
| 20260503222531 | 83 | 117 | 1.0 | 1.0 | 0.00 | 0.00 | 0.00 | 79 | 1016.7 |
| 20260503222029 | 83 | 168 | 3.0 | 5.0 | 0.00 | 0.00 | 0.00 | 79 | 1016.5 |
| 20260503221528 | 83 | 132 | 3.0 | 3.0 | 0.00 | 0.00 | 0.00 | 79 | 1016.5 |
| 20260503221025 | 84 | 143 | 3.0 | 5.0 | 0.00 | 0.00 | 0.00 | 78 | 1016.7 |
| 20260503220520 | 84 | 233 | 3.0 | 5.0 | 0.00 | 0.00 | 0.00 | 77 | 1016.4 |
| 20260503220017 | 84 | 157 | 4.0 | 5.0 | 0.00 | 0.00 | 0.00 | 77 | 1016.4 |
| 20260503215515 | 84 | 86 | 8.0 | 13.0 | 0.00 | 0.00 | 0.00 | 76 | 1016.4 |
| 20260503215012 | 85 | 71 | 7.0 | 9.0 | 0.00 | 0.00 | 0.00 | 75 | 1016.2 |
| 20260503214510 | 85 | 190 | 4.0 | 5.0 | 0.00 | 0.00 | 0.00 | 74 | 1016.5 |
| 20260503214006 | 85 | 70 | 10.0 | 11.0 | 0.00 | 0.00 | 0.00 | 73 | 1016.4 |
| 20260503213505 | 85 | 82 | 5.0 | 7.0 | 0.00 | 0.00 | 0.00 | 74 | 1016.3 |
| 20260503213001 | 85 | 192 | 5.0 | 10.0 | 0.00 | 0.00 | 0.00 | 74 | 1016.3 |
| 20260503212458 | 85 | 101 | 4.0 | 6.0 | 0.00 | 0.00 | 0.00 | 73 | 1016.1 |
| 20260503211956 | 86 | 111 | 3.0 | 3.0 | 0.00 | 0.00 | 0.00 | 72 | 1016.3 |
| 20260503211453 | 87 | 87 | 3.0 | 5.0 | 0.00 | 0.00 | 0.00 | 70 | 1016.3 |
| 20260503210948 | 87 | 100 | 5.0 | 9.0 | 0.00 | 0.00 | 0.00 | 70 | 1016.2 |
| 20260503210445 | 87 | 151 | 4.0 | 6.0 | 0.00 | 0.00 | 0.00 | 69 | 1015.9 |
| 20260503205940 | 86 | 72 | 6.0 | 8.0 | 0.00 | 0.00 | 0.00 | 70 | 1016.1 |
| 20260503205437 | 87 | 85 | 4.0 | 8.0 | 0.00 | 0.00 | 0.00 | 70 | 1016.1 |
| 20260503204933 | 87 | 125 | 4.0 | 5.0 | 0.00 | 0.00 | 0.00 | 71 | 1016.1 |
| 20260503204431 | 88 | 145 | 1.0 | 2.0 | 0.00 | 0.00 | 0.00 | 68 | 1016.2 |
| 20260503203928 | 88 | 120 | 6.0 | 8.0 | 0.00 | 0.00 | 0.00 | 68 | 1016.3 |
| 20260503203425 | 88 | 88 | 5.0 | 8.0 | 0.00 | 0.00 | 0.00 | 66 | 1016.0 |
| 20260503202922 | 90 | 71 | 5.0 | 7.0 | 0.00 | 0.00 | 0.00 | 64 | 1016.2 |
| 20260503202420 | 89 | 98 | 6.0 | 9.0 | 0.00 | 0.00 | 0.00 | 64 | 1016.1 |
| 20260503201918 | 90 | 74 | 5.0 | 7.0 | 0.00 | 0.00 | 0.00 | 63 | 1016.0 |